Year,Month,Day,Hour,Minute,Value (Times are PST for temperature in C)
2013,04,23,00,00,8.10
2013,04,23,00,01,8.10
2013,04,23,00,02,8.20
2013,04,23,00,03,8.20
2013,04,23,00,04,8.30
2013,04,23,00,05,8.20
2013,04,23,00,06,8.30
2013,04,23,00,07,8.30
2013,04,23,00,08,8.20
2013,04,23,00,09,8.20
2013,04,23,00,10,8.20
2013,04,23,00,11,8.20
2013,04,23,00,12,8.10
2013,04,23,00,13,8.10
2013,04,23,00,14,8.10
2013,04,23,00,15,8.10
2013,04,23,00,16,8.00
2013,04,23,00,17,7.90
2013,04,23,00,18,7.90
2013,04,23,00,19,7.80
2013,04,23,00,20,7.80
2013,04,23,00,21,7.70
2013,04,23,00,22,7.60
2013,04,23,00,23,7.60
2013,04,23,00,24,7.50
2013,04,23,00,25,7.40
2013,04,23,00,26,7.30
2013,04,23,00,27,7.20
2013,04,23,00,28,7.00
2013,04,23,00,29,6.90
2013,04,23,00,30,6.80
2013,04,23,00,31,6.70
2013,04,23,00,32,6.60
2013,04,23,00,33,6.50
2013,04,23,00,34,6.50
2013,04,23,00,35,6.40
2013,04,23,00,36,6.30
2013,04,23,00,37,6.30
2013,04,23,00,38,6.20
2013,04,23,00,39,6.20
2013,04,23,00,40,6.10
2013,04,23,00,41,6.10
2013,04,23,00,42,6.10
2013,04,23,00,43,6.00
2013,04,23,00,44,6.00
2013,04,23,00,45,6.00
2013,04,23,00,46,6.00
2013,04,23,00,47,5.90
2013,04,23,00,48,5.90
2013,04,23,00,49,5.90
2013,04,23,00,50,5.90
2013,04,23,00,51,5.90
2013,04,23,00,52,5.90
2013,04,23,00,53,5.90
2013,04,23,00,54,5.90
2013,04,23,00,55,5.90
2013,04,23,00,56,5.90
2013,04,23,00,57,5.90
2013,04,23,00,58,5.90
2013,04,23,00,59,5.90
2013,04,23,01,00,5.80
2013,04,23,01,01,5.80
2013,04,23,01,02,5.80
2013,04,23,01,03,5.80
2013,04,23,01,04,5.90
2013,04,23,01,05,5.90
2013,04,23,01,06,5.90
2013,04,23,01,07,5.90
2013,04,23,01,08,5.90
2013,04,23,01,09,5.90
2013,04,23,01,10,5.90
2013,04,23,01,11,5.80
2013,04,23,01,12,5.80
2013,04,23,01,13,5.80
2013,04,23,01,14,5.80
2013,04,23,01,15,5.80
2013,04,23,01,16,5.90
2013,04,23,01,17,5.90
2013,04,23,01,18,6.00
2013,04,23,01,19,6.10
2013,04,23,01,20,6.20
2013,04,23,01,21,6.20
2013,04,23,01,22,6.30
2013,04,23,01,23,6.30
2013,04,23,01,24,6.40
2013,04,23,01,25,6.40
2013,04,23,01,26,6.40
2013,04,23,01,27,6.40
2013,04,23,01,28,6.50
2013,04,23,01,29,6.50
2013,04,23,01,30,6.50
2013,04,23,01,31,6.60
2013,04,23,01,32,6.60
2013,04,23,01,33,6.50
2013,04,23,01,34,6.50
2013,04,23,01,35,6.50
2013,04,23,01,36,6.40
2013,04,23,01,37,6.50
2013,04,23,01,38,6.50
2013,04,23,01,39,6.60
2013,04,23,01,40,6.60
2013,04,23,01,41,6.60
2013,04,23,01,42,6.60
2013,04,23,01,43,6.60
2013,04,23,01,44,6.60
2013,04,23,01,45,6.60
2013,04,23,01,46,6.60
2013,04,23,01,47,6.50
2013,04,23,01,48,6.50
2013,04,23,01,49,6.40
2013,04,23,01,50,6.40
2013,04,23,01,51,6.30
2013,04,23,01,52,6.20
2013,04,23,01,53,6.20
2013,04,23,01,54,6.10
2013,04,23,01,55,6.00
2013,04,23,01,56,6.00
2013,04,23,01,57,5.90
2013,04,23,01,58,5.80
2013,04,23,01,59,5.80
2013,04,23,02,00,5.70
2013,04,23,02,01,5.60
2013,04,23,02,02,5.60
2013,04,23,02,03,5.50
2013,04,23,02,04,5.50
2013,04,23,02,05,5.50
2013,04,23,02,06,5.50
2013,04,23,02,07,5.50
2013,04,23,02,08,5.60
2013,04,23,02,09,5.60
2013,04,23,02,10,5.60
2013,04,23,02,11,5.60
2013,04,23,02,12,5.60
2013,04,23,02,13,5.60
2013,04,23,02,14,5.70
2013,04,23,02,15,5.70
2013,04,23,02,16,5.90
2013,04,23,02,17,6.10
2013,04,23,02,18,6.20
2013,04,23,02,19,6.40
2013,04,23,02,20,6.50
2013,04,23,02,21,6.70
2013,04,23,02,22,6.90
2013,04,23,02,23,7.00
2013,04,23,02,24,7.10
2013,04,23,02,25,7.20
2013,04,23,02,26,7.20
2013,04,23,02,27,7.20
2013,04,23,02,28,7.30
2013,04,23,02,29,7.30
2013,04,23,02,30,7.40
2013,04,23,02,31,7.40
2013,04,23,02,32,7.50
2013,04,23,02,33,7.50
2013,04,23,02,34,7.50
2013,04,23,02,35,7.40
2013,04,23,02,36,7.40
2013,04,23,02,37,7.40
2013,04,23,02,38,7.30
2013,04,23,02,39,7.30
2013,04,23,02,40,7.30
2013,04,23,02,41,7.20
2013,04,23,02,42,7.20
2013,04,23,02,43,7.20
2013,04,23,02,44,7.10
2013,04,23,02,45,7.10
2013,04,23,02,46,7.10
2013,04,23,02,47,7.00
2013,04,23,02,48,7.00
2013,04,23,02,49,7.00
2013,04,23,02,50,6.90
2013,04,23,02,51,6.90
2013,04,23,02,52,6.90
2013,04,23,02,53,6.90
2013,04,23,02,54,6.80
2013,04,23,02,55,6.80
2013,04,23,02,56,6.80
2013,04,23,02,57,6.80
2013,04,23,02,58,6.80
2013,04,23,02,59,6.80
2013,04,23,03,00,6.80
2013,04,23,03,01,6.80
2013,04,23,03,02,6.90
2013,04,23,03,03,6.90
2013,04,23,03,04,7.00
2013,04,23,03,05,7.00
2013,04,23,03,06,7.10
2013,04,23,03,07,7.10
2013,04,23,03,08,7.10
2013,04,23,03,09,7.10
2013,04,23,03,10,7.20
2013,04,23,03,11,7.10
2013,04,23,03,12,7.10
2013,04,23,03,13,7.10
2013,04,23,03,14,7.10
2013,04,23,03,15,7.10
2013,04,23,03,16,7.10
2013,04,23,03,17,7.10
2013,04,23,03,18,7.10
2013,04,23,03,19,7.20
2013,04,23,03,20,7.20
2013,04,23,03,21,7.20
2013,04,23,03,22,7.20
2013,04,23,03,23,7.20
2013,04,23,03,24,7.20
2013,04,23,03,25,7.20
2013,04,23,03,26,7.20
2013,04,23,03,27,7.20
2013,04,23,03,28,7.20
2013,04,23,03,29,7.20
2013,04,23,03,30,7.20
2013,04,23,03,31,7.20
2013,04,23,03,32,7.20
2013,04,23,03,33,7.20
2013,04,23,03,34,7.10
2013,04,23,03,35,7.10
2013,04,23,03,36,7.10
2013,04,23,03,37,7.10
2013,04,23,03,38,7.10
2013,04,23,03,39,7.10
2013,04,23,03,40,7.10
2013,04,23,03,41,7.10
2013,04,23,03,42,7.10
2013,04,23,03,43,7.10
2013,04,23,03,44,7.10
2013,04,23,03,45,7.00
2013,04,23,03,46,7.00
2013,04,23,03,47,7.00
2013,04,23,03,48,7.00
2013,04,23,03,49,6.90
2013,04,23,03,50,6.90
2013,04,23,03,51,6.90
2013,04,23,03,52,6.80
2013,04,23,03,53,6.80
2013,04,23,03,54,6.80
2013,04,23,03,55,6.80
2013,04,23,03,56,6.80
2013,04,23,03,57,6.80
2013,04,23,03,58,6.80
2013,04,23,03,59,6.80
2013,04,23,04,00,6.80
2013,04,23,04,01,6.80
2013,04,23,04,02,6.80
2013,04,23,04,03,6.80
2013,04,23,04,04,6.80
2013,04,23,04,05,6.80
2013,04,23,04,06,6.80
2013,04,23,04,07,6.80
2013,04,23,04,08,6.80
2013,04,23,04,09,6.80
2013,04,23,04,10,6.80
2013,04,23,04,11,6.80
2013,04,23,04,12,6.80
2013,04,23,04,13,6.80
2013,04,23,04,14,6.80
2013,04,23,04,15,6.80
2013,04,23,04,16,6.80
2013,04,23,04,17,6.80
2013,04,23,04,18,6.80
2013,04,23,04,19,6.80
2013,04,23,04,20,6.80
2013,04,23,04,21,6.80
2013,04,23,04,22,6.80
2013,04,23,04,23,6.80
2013,04,23,04,24,6.80
2013,04,23,04,25,6.80
2013,04,23,04,26,6.80
2013,04,23,04,27,6.80
2013,04,23,04,28,6.80
2013,04,23,04,29,6.80
2013,04,23,04,30,6.80
2013,04,23,04,31,6.80
2013,04,23,04,32,6.80
2013,04,23,04,33,6.80
2013,04,23,04,34,6.80
2013,04,23,04,35,6.90
2013,04,23,04,36,6.90
2013,04,23,04,37,6.90
2013,04,23,04,38,6.80
2013,04,23,04,39,6.80
2013,04,23,04,40,6.80
2013,04,23,04,41,6.80
2013,04,23,04,42,6.80
2013,04,23,04,43,6.80
2013,04,23,04,44,6.80
2013,04,23,04,45,6.80
2013,04,23,04,46,6.80
2013,04,23,04,47,6.90
2013,04,23,04,48,6.90
2013,04,23,04,49,6.90
2013,04,23,04,50,6.90
2013,04,23,04,51,6.90
2013,04,23,04,52,7.00
2013,04,23,04,53,7.00
2013,04,23,04,54,7.00
2013,04,23,04,55,7.10
2013,04,23,04,56,7.10
2013,04,23,04,57,7.10
2013,04,23,04,58,7.10
2013,04,23,04,59,7.10
2013,04,23,05,00,7.10
2013,04,23,05,01,7.10
2013,04,23,05,02,7.00
2013,04,23,05,03,7.00
2013,04,23,05,04,7.10
2013,04,23,05,05,7.10
2013,04,23,05,06,7.00
2013,04,23,05,07,7.00
2013,04,23,05,08,7.00
2013,04,23,05,09,7.00
2013,04,23,05,10,7.00
2013,04,23,05,11,7.00
2013,04,23,05,12,7.10
2013,04,23,05,13,7.10
2013,04,23,05,14,7.10
2013,04,23,05,15,7.10
2013,04,23,05,16,7.10
2013,04,23,05,17,7.10
2013,04,23,05,18,7.10
2013,04,23,05,19,7.00
2013,04,23,05,20,7.00
2013,04,23,05,21,7.00
2013,04,23,05,22,7.00
2013,04,23,05,23,7.00
2013,04,23,05,24,6.90
2013,04,23,05,25,6.90
2013,04,23,05,26,6.90
2013,04,23,05,27,6.90
2013,04,23,05,28,7.00
2013,04,23,05,29,7.00
2013,04,23,05,30,7.00
2013,04,23,05,31,7.00
2013,04,23,05,32,7.00
2013,04,23,05,33,7.10
2013,04,23,05,34,7.10
2013,04,23,05,35,7.10
2013,04,23,05,36,7.20
2013,04,23,05,37,7.20
2013,04,23,05,38,7.20
2013,04,23,05,39,7.20
2013,04,23,05,40,7.20
2013,04,23,05,41,7.20
2013,04,23,05,42,7.20
2013,04,23,05,43,7.20
2013,04,23,05,44,7.20
2013,04,23,05,45,7.20
2013,04,23,05,46,7.20
2013,04,23,05,47,7.20
2013,04,23,05,48,7.20
2013,04,23,05,49,7.20
2013,04,23,05,50,7.20
2013,04,23,05,51,7.20
2013,04,23,05,52,7.20
2013,04,23,05,53,7.20
2013,04,23,05,54,7.20
2013,04,23,05,55,7.20
2013,04,23,05,56,7.20
2013,04,23,05,57,7.20
2013,04,23,05,58,7.20
2013,04,23,05,59,7.20
2013,04,23,06,00,7.20
2013,04,23,06,01,7.20
2013,04,23,06,02,7.20
2013,04,23,06,03,7.20
2013,04,23,06,04,7.20
2013,04,23,06,05,7.20
2013,04,23,06,06,7.20
2013,04,23,06,07,7.30
2013,04,23,06,08,7.30
2013,04,23,06,09,7.30
2013,04,23,06,10,7.30
2013,04,23,06,11,7.30
2013,04,23,06,12,7.40
2013,04,23,06,13,7.40
2013,04,23,06,14,7.40
2013,04,23,06,15,7.40
2013,04,23,06,16,7.40
2013,04,23,06,17,7.40
2013,04,23,06,18,7.40
2013,04,23,06,19,7.40
2013,04,23,06,20,7.40
2013,04,23,06,21,7.40
2013,04,23,06,22,7.40
2013,04,23,06,23,7.40
2013,04,23,06,24,7.40
2013,04,23,06,25,7.40
2013,04,23,06,26,7.40
2013,04,23,06,27,7.40
2013,04,23,06,28,7.40
2013,04,23,06,29,7.40
2013,04,23,06,30,7.40
2013,04,23,06,31,7.40
2013,04,23,06,32,7.40
2013,04,23,06,33,7.40
2013,04,23,06,34,7.40
2013,04,23,06,35,7.40
2013,04,23,06,36,7.50
2013,04,23,06,37,7.50
2013,04,23,06,38,7.50
2013,04,23,06,39,7.50
2013,04,23,06,40,7.50
2013,04,23,06,41,7.50
2013,04,23,06,42,7.50
2013,04,23,06,43,7.50
2013,04,23,06,44,7.50
2013,04,23,06,45,7.50
2013,04,23,06,46,7.40
2013,04,23,06,47,7.40
2013,04,23,06,48,7.40
2013,04,23,06,49,7.40
2013,04,23,06,50,7.40
2013,04,23,06,51,7.40
2013,04,23,06,52,7.40
2013,04,23,06,53,7.40
2013,04,23,06,54,7.40
2013,04,23,06,55,7.40
2013,04,23,06,56,7.40
2013,04,23,06,57,7.40
2013,04,23,06,58,7.50
2013,04,23,06,59,7.50
2013,04,23,07,00,7.60
2013,04,23,07,01,7.60
2013,04,23,07,02,7.60
2013,04,23,07,03,7.60
2013,04,23,07,04,7.60
2013,04,23,07,05,7.70
2013,04,23,07,06,7.70
2013,04,23,07,07,7.70
2013,04,23,07,08,7.70
2013,04,23,07,09,7.70
2013,04,23,07,10,7.70
2013,04,23,07,11,7.70
2013,04,23,07,12,7.70
2013,04,23,07,13,7.70
2013,04,23,07,14,7.70
2013,04,23,07,15,7.70
2013,04,23,07,16,7.70
2013,04,23,07,17,7.70
2013,04,23,07,18,7.70
2013,04,23,07,19,7.70
2013,04,23,07,20,7.70
2013,04,23,07,21,7.80
2013,04,23,07,22,7.80
2013,04,23,07,23,7.80
2013,04,23,07,24,7.80
2013,04,23,07,25,7.80
2013,04,23,07,26,7.80
2013,04,23,07,27,7.90
2013,04,23,07,28,7.80
2013,04,23,07,29,7.90
2013,04,23,07,30,7.90
2013,04,23,07,31,7.90
2013,04,23,07,32,7.90
2013,04,23,07,33,7.90
2013,04,23,07,34,8.00
2013,04,23,07,35,8.00
2013,04,23,07,36,8.10
2013,04,23,07,37,8.10
2013,04,23,07,38,8.10
2013,04,23,07,39,8.10
2013,04,23,07,40,8.10
2013,04,23,07,41,8.10
2013,04,23,07,42,8.10
2013,04,23,07,43,8.10
2013,04,23,07,44,8.20
2013,04,23,07,45,8.20
2013,04,23,07,46,8.20
2013,04,23,07,47,8.20
2013,04,23,07,48,8.20
2013,04,23,07,49,8.20
2013,04,23,07,50,8.30
2013,04,23,07,51,8.30
2013,04,23,07,52,8.30
2013,04,23,07,53,8.30
2013,04,23,07,54,8.30
2013,04,23,07,55,8.30
2013,04,23,07,56,8.30
2013,04,23,07,57,8.30
2013,04,23,07,58,8.30
2013,04,23,07,59,8.20
2013,04,23,08,00,8.30
2013,04,23,08,01,8.30
2013,04,23,08,02,8.30
2013,04,23,08,03,8.30
2013,04,23,08,04,8.40
2013,04,23,08,05,8.50
2013,04,23,08,06,8.50
2013,04,23,08,07,8.60
2013,04,23,08,08,8.60
2013,04,23,08,09,8.60
2013,04,23,08,10,8.70
2013,04,23,08,11,8.70
2013,04,23,08,12,8.80
2013,04,23,08,13,8.80
2013,04,23,08,14,8.80
2013,04,23,08,15,8.80
2013,04,23,08,16,8.90
2013,04,23,08,17,8.90
2013,04,23,08,18,8.90
2013,04,23,08,19,8.90
2013,04,23,08,20,8.90
2013,04,23,08,21,8.90
2013,04,23,08,22,9.00
2013,04,23,08,23,9.00
2013,04,23,08,24,9.00
2013,04,23,08,25,9.00
2013,04,23,08,26,9.00
2013,04,23,08,27,9.10
2013,04,23,08,28,9.10
2013,04,23,08,29,9.10
2013,04,23,08,30,9.10
2013,04,23,08,31,9.10
2013,04,23,08,32,9.10
2013,04,23,08,33,9.10
2013,04,23,08,34,9.20
2013,04,23,08,35,9.20
2013,04,23,08,36,9.20
2013,04,23,08,37,9.20
2013,04,23,08,38,9.20
2013,04,23,08,39,9.20
2013,04,23,08,40,9.30
2013,04,23,08,41,9.30
2013,04,23,08,42,9.30
2013,04,23,08,43,9.30
2013,04,23,08,44,9.30
2013,04,23,08,45,9.30
2013,04,23,08,46,9.30
2013,04,23,08,47,9.40
2013,04,23,08,48,9.40
2013,04,23,08,49,9.40
2013,04,23,08,50,9.50
2013,04,23,08,51,9.50
2013,04,23,08,52,9.50
2013,04,23,08,53,9.60
2013,04,23,08,54,9.60
2013,04,23,08,55,9.60
2013,04,23,08,56,9.60
2013,04,23,08,57,9.70
2013,04,23,08,58,9.70
2013,04,23,08,59,9.70
2013,04,23,09,00,9.70
2013,04,23,09,01,9.80
2013,04,23,09,02,9.80
2013,04,23,09,03,9.80
2013,04,23,09,04,9.80
2013,04,23,09,05,9.80
2013,04,23,09,06,9.90
2013,04,23,09,07,9.90
2013,04,23,09,08,9.90
2013,04,23,09,09,10.00
2013,04,23,09,10,10.00
2013,04,23,09,11,10.00
2013,04,23,09,12,10.00
2013,04,23,09,13,10.10
2013,04,23,09,14,10.10
2013,04,23,09,15,10.10
2013,04,23,09,16,10.10
2013,04,23,09,17,10.10
2013,04,23,09,18,10.10
2013,04,23,09,19,10.10
2013,04,23,09,20,10.10
2013,04,23,09,21,10.10
2013,04,23,09,22,10.10
2013,04,23,09,23,10.10
2013,04,23,09,24,10.10
2013,04,23,09,25,10.10
2013,04,23,09,26,10.10
2013,04,23,09,27,10.10
2013,04,23,09,28,10.10
2013,04,23,09,29,10.10
2013,04,23,09,30,10.10
2013,04,23,09,31,10.20
2013,04,23,09,32,10.20
2013,04,23,09,33,10.20
2013,04,23,09,34,10.20
2013,04,23,09,35,10.20
2013,04,23,09,36,10.20
2013,04,23,09,37,10.20
2013,04,23,09,38,10.30
2013,04,23,09,39,10.30
2013,04,23,09,40,10.20
2013,04,23,09,41,10.20
2013,04,23,09,42,10.20
2013,04,23,09,43,10.20
2013,04,23,09,44,10.20
2013,04,23,09,45,10.20
2013,04,23,09,46,10.20
2013,04,23,09,47,10.20
2013,04,23,09,48,10.20
2013,04,23,09,49,10.20
2013,04,23,09,50,10.20
2013,04,23,09,51,10.20
2013,04,23,09,52,10.20
2013,04,23,09,53,10.20
2013,04,23,09,54,10.20
2013,04,23,09,55,10.20
2013,04,23,09,56,10.20
2013,04,23,09,57,10.20
2013,04,23,09,58,10.20
2013,04,23,09,59,10.20
2013,04,23,10,00,10.30
2013,04,23,10,01,10.30
2013,04,23,10,02,10.40
2013,04,23,10,03,10.40
2013,04,23,10,04,10.40
2013,04,23,10,05,10.40
2013,04,23,10,06,10.40
2013,04,23,10,07,10.40
2013,04,23,10,08,10.30
2013,04,23,10,09,10.30
2013,04,23,10,10,10.30
2013,04,23,10,11,10.20
2013,04,23,10,12,10.20
2013,04,23,10,13,10.20
2013,04,23,10,14,10.20
2013,04,23,10,15,10.20
2013,04,23,10,16,10.20
2013,04,23,10,17,10.20
2013,04,23,10,18,10.20
2013,04,23,10,19,10.30
2013,04,23,10,20,10.30
2013,04,23,10,21,10.40
2013,04,23,10,22,10.40
2013,04,23,10,23,10.50
2013,04,23,10,24,10.50
2013,04,23,10,25,10.60
2013,04,23,10,26,10.70
2013,04,23,10,27,10.70
2013,04,23,10,28,10.70
2013,04,23,10,29,10.80
2013,04,23,10,30,10.70
2013,04,23,10,31,10.70
2013,04,23,10,32,10.80
2013,04,23,10,33,10.80
2013,04,23,10,34,10.80
2013,04,23,10,35,10.80
2013,04,23,10,36,10.80
2013,04,23,10,37,10.80
2013,04,23,10,38,10.70
2013,04,23,10,39,10.70
2013,04,23,10,40,10.70
2013,04,23,10,41,10.80
2013,04,23,10,42,10.80
2013,04,23,10,43,10.80
2013,04,23,10,44,10.90
2013,04,23,10,45,10.90
2013,04,23,10,46,10.90
2013,04,23,10,47,11.00
2013,04,23,10,48,11.00
2013,04,23,10,49,11.00
2013,04,23,10,50,11.00
2013,04,23,10,51,11.00
2013,04,23,10,52,11.00
2013,04,23,10,53,11.10
2013,04,23,10,54,11.10
2013,04,23,10,55,11.10
2013,04,23,10,56,11.10
2013,04,23,10,57,11.20
2013,04,23,10,58,11.30
2013,04,23,10,59,11.30
2013,04,23,11,00,11.30
2013,04,23,11,01,11.30
2013,04,23,11,02,11.20
2013,04,23,11,03,11.20
2013,04,23,11,04,11.30
2013,04,23,11,05,11.30
2013,04,23,11,06,11.30
2013,04,23,11,07,11.30
2013,04,23,11,08,11.30
2013,04,23,11,09,11.30
2013,04,23,11,10,11.30
2013,04,23,11,11,11.30
2013,04,23,11,12,11.30
2013,04,23,11,13,11.30
2013,04,23,11,14,11.30
2013,04,23,11,15,11.20
2013,04,23,11,16,11.20
2013,04,23,11,17,11.10
2013,04,23,11,18,11.10
2013,04,23,11,19,11.00
2013,04,23,11,20,11.00
2013,04,23,11,21,11.00
2013,04,23,11,22,11.10
2013,04,23,11,23,11.10
2013,04,23,11,24,11.10
2013,04,23,11,25,11.10
2013,04,23,11,26,11.10
2013,04,23,11,27,11.10
2013,04,23,11,28,11.10
2013,04,23,11,29,11.10
2013,04,23,11,30,11.10
2013,04,23,11,31,11.20
2013,04,23,11,32,11.20
2013,04,23,11,33,11.20
2013,04,23,11,34,11.20
2013,04,23,11,35,11.20
2013,04,23,11,36,11.20
2013,04,23,11,37,11.20
2013,04,23,11,38,11.30
2013,04,23,11,39,11.30
2013,04,23,11,40,11.40
2013,04,23,11,41,11.40
2013,04,23,11,42,11.50
2013,04,23,11,43,11.50
2013,04,23,11,44,11.50
2013,04,23,11,45,11.50
2013,04,23,11,46,11.60
2013,04,23,11,47,11.60
2013,04,23,11,48,11.70
2013,04,23,11,49,11.70
2013,04,23,11,50,11.80
2013,04,23,11,51,11.80
2013,04,23,11,52,11.90
2013,04,23,11,53,12.00
2013,04,23,11,54,12.10
2013,04,23,11,55,12.10
2013,04,23,11,56,12.10
2013,04,23,11,57,12.10
2013,04,23,11,58,12.10
2013,04,23,11,59,12.20
2013,04,23,12,00,12.30
2013,04,23,12,01,12.40
2013,04,23,12,02,12.40
2013,04,23,12,03,12.50
2013,04,23,12,04,12.50
2013,04,23,12,05,12.60
2013,04,23,12,06,12.80
2013,04,23,12,07,12.80
2013,04,23,12,08,12.90
2013,04,23,12,09,12.90
2013,04,23,12,10,12.90
2013,04,23,12,11,12.80
2013,04,23,12,12,12.80
2013,04,23,12,13,12.80
2013,04,23,12,14,12.80
2013,04,23,12,15,12.80
2013,04,23,12,16,12.80
2013,04,23,12,17,12.80
2013,04,23,12,18,12.80
2013,04,23,12,19,12.80
2013,04,23,12,20,12.80
2013,04,23,12,21,12.80
2013,04,23,12,22,12.90
2013,04,23,12,23,13.00
2013,04,23,12,24,13.10
2013,04,23,12,25,13.20
2013,04,23,12,26,13.20
2013,04,23,12,27,13.30
2013,04,23,12,28,13.30
2013,04,23,12,29,13.40
2013,04,23,12,30,13.40
2013,04,23,12,31,13.30
2013,04,23,12,32,13.40
2013,04,23,12,33,13.50
2013,04,23,12,34,13.60
2013,04,23,12,35,13.70
2013,04,23,12,36,13.70
2013,04,23,12,37,13.80
2013,04,23,12,38,13.70
2013,04,23,12,39,13.60
2013,04,23,12,40,13.50
2013,04,23,12,41,13.40
2013,04,23,12,42,13.40
2013,04,23,12,43,13.50
2013,04,23,12,44,13.50
2013,04,23,12,45,13.60
2013,04,23,12,46,13.70
2013,04,23,12,47,13.70
2013,04,23,12,48,13.70
2013,04,23,12,49,13.70
2013,04,23,12,50,13.70
2013,04,23,12,51,13.80
2013,04,23,12,52,13.80
2013,04,23,12,53,13.80
2013,04,23,12,54,13.90
2013,04,23,12,55,13.90
2013,04,23,12,56,13.80
2013,04,23,12,57,13.80
2013,04,23,12,58,13.80
2013,04,23,12,59,13.80
2013,04,23,13,00,13.90
2013,04,23,13,01,13.90
2013,04,23,13,02,14.00
2013,04,23,13,03,14.10
2013,04,23,13,04,14.10
2013,04,23,13,05,14.10
2013,04,23,13,06,14.20
2013,04,23,13,07,14.30
2013,04,23,13,08,14.40
2013,04,23,13,09,14.40
2013,04,23,13,10,14.40
2013,04,23,13,11,14.40
2013,04,23,13,12,14.30
2013,04,23,13,13,14.20
2013,04,23,13,14,14.20
2013,04,23,13,15,14.20
2013,04,23,13,16,14.20
2013,04,23,13,17,14.30
2013,04,23,13,18,14.40
2013,04,23,13,19,14.40
2013,04,23,13,20,14.50
2013,04,23,13,21,14.40
2013,04,23,13,22,14.40
2013,04,23,13,23,14.40
2013,04,23,13,24,14.40
2013,04,23,13,25,14.50
2013,04,23,13,26,14.40
2013,04,23,13,27,14.50
2013,04,23,13,28,14.50
2013,04,23,13,29,14.50
2013,04,23,13,30,14.40
2013,04,23,13,31,14.30
2013,04,23,13,32,14.30
2013,04,23,13,33,14.30
2013,04,23,13,34,14.20
2013,04,23,13,35,14.10
2013,04,23,13,36,13.80
2013,04,23,13,37,13.70
2013,04,23,13,38,13.60
2013,04,23,13,39,13.60
2013,04,23,13,40,13.50
2013,04,23,13,41,13.40
2013,04,23,13,42,13.30
2013,04,23,13,43,13.30
2013,04,23,13,44,13.40
2013,04,23,13,45,13.40
2013,04,23,13,46,13.30
2013,04,23,13,47,13.20
2013,04,23,13,48,13.20
2013,04,23,13,49,13.10
2013,04,23,13,50,13.10
2013,04,23,13,51,13.20
2013,04,23,13,52,13.30
2013,04,23,13,53,13.30
2013,04,23,13,54,13.40
2013,04,23,13,55,13.50
2013,04,23,13,56,13.60
2013,04,23,13,57,13.70
2013,04,23,13,58,13.70
2013,04,23,13,59,13.80
2013,04,23,14,00,13.90
2013,04,23,14,01,13.90
2013,04,23,14,02,13.90
2013,04,23,14,03,13.90
2013,04,23,14,04,13.90
2013,04,23,14,05,14.00
2013,04,23,14,06,14.00
2013,04,23,14,07,13.90
2013,04,23,14,08,13.90
2013,04,23,14,09,13.90
2013,04,23,14,10,13.90
2013,04,23,14,11,13.90
2013,04,23,14,12,14.00
2013,04,23,14,13,14.00
2013,04,23,14,14,14.00
2013,04,23,14,15,14.00
2013,04,23,14,16,13.90
2013,04,23,14,17,13.90
2013,04,23,14,18,14.00
2013,04,23,14,19,14.10
2013,04,23,14,20,14.00
2013,04,23,14,21,13.90
2013,04,23,14,22,13.80
2013,04,23,14,23,13.80
2013,04,23,14,24,13.80
2013,04,23,14,25,13.80
2013,04,23,14,26,13.80
2013,04,23,14,27,13.80
2013,04,23,14,28,13.80
2013,04,23,14,29,13.80
2013,04,23,14,30,13.80
2013,04,23,14,31,13.70
2013,04,23,14,32,13.70
2013,04,23,14,33,13.70
2013,04,23,14,34,13.60
2013,04,23,14,35,13.60
2013,04,23,14,36,13.60
2013,04,23,14,37,13.60
2013,04,23,14,38,13.50
2013,04,23,14,39,13.50
2013,04,23,14,40,13.60
2013,04,23,14,41,13.60
2013,04,23,14,42,13.60
2013,04,23,14,43,13.70
2013,04,23,14,44,13.70
2013,04,23,14,45,13.70
2013,04,23,14,46,13.70
2013,04,23,14,47,13.70
2013,04,23,14,48,13.70
2013,04,23,14,49,13.70
2013,04,23,14,50,13.70
2013,04,23,14,51,13.60
2013,04,23,14,52,13.70
2013,04,23,14,53,13.70
2013,04,23,14,54,13.70
2013,04,23,14,55,13.80
2013,04,23,14,56,13.70
2013,04,23,14,57,13.70
2013,04,23,14,58,13.70
2013,04,23,14,59,13.70
2013,04,23,15,00,13.80
2013,04,23,15,01,13.90
2013,04,23,15,02,13.90
2013,04,23,15,03,14.00
2013,04,23,15,04,14.10
2013,04,23,15,05,14.30
2013,04,23,15,06,14.40
2013,04,23,15,07,14.50
2013,04,23,15,08,14.70
2013,04,23,15,09,14.70
2013,04,23,15,10,14.70
2013,04,23,15,11,14.70
2013,04,23,15,12,14.70
2013,04,23,15,13,14.70
2013,04,23,15,14,14.70
2013,04,23,15,15,14.80
2013,04,23,15,16,14.80
2013,04,23,15,17,14.70
2013,04,23,15,18,14.70
2013,04,23,15,19,14.60
2013,04,23,15,20,14.70
2013,04,23,15,21,14.70
2013,04,23,15,22,14.80
2013,04,23,15,23,14.90
2013,04,23,15,24,14.90
2013,04,23,15,25,14.70
2013,04,23,15,26,14.60
2013,04,23,15,27,14.50
2013,04,23,15,28,14.40
2013,04,23,15,29,14.30
2013,04,23,15,30,14.40
2013,04,23,15,31,14.40
2013,04,23,15,32,14.40
2013,04,23,15,33,14.40
2013,04,23,15,34,14.30
2013,04,23,15,35,14.30
2013,04,23,15,36,14.20
2013,04,23,15,37,14.30
2013,04,23,15,38,14.40
2013,04,23,15,39,14.40
2013,04,23,15,40,14.50
2013,04,23,15,41,14.60
2013,04,23,15,42,14.60
2013,04,23,15,43,14.70
2013,04,23,15,44,14.80
2013,04,23,15,45,14.80
2013,04,23,15,46,14.70
2013,04,23,15,47,14.70
2013,04,23,15,48,14.60
2013,04,23,15,49,14.60
2013,04,23,15,50,14.60
2013,04,23,15,51,14.50
2013,04,23,15,52,14.50
2013,04,23,15,53,14.40
2013,04,23,15,54,14.40
2013,04,23,15,55,14.40
2013,04,23,15,56,14.40
2013,04,23,15,57,14.40
2013,04,23,15,58,14.40
2013,04,23,15,59,14.50
2013,04,23,16,00,14.50
2013,04,23,16,01,14.50
2013,04,23,16,02,14.60
2013,04,23,16,03,14.60
2013,04,23,16,04,14.50
2013,04,23,16,05,14.50
2013,04,23,16,06,14.50
2013,04,23,16,07,14.40
2013,04,23,16,08,14.50
2013,04,23,16,09,14.60
2013,04,23,16,10,14.70
2013,04,23,16,11,14.80
2013,04,23,16,12,15.00
2013,04,23,16,13,15.00
2013,04,23,16,14,15.00
2013,04,23,16,15,15.00
2013,04,23,16,16,15.00
2013,04,23,16,17,15.00
2013,04,23,16,18,15.00
2013,04,23,16,19,15.00
2013,04,23,16,20,15.00
2013,04,23,16,21,15.00
2013,04,23,16,22,15.00
2013,04,23,16,23,14.90
2013,04,23,16,24,14.90
2013,04,23,16,25,14.90
2013,04,23,16,26,14.80
2013,04,23,16,27,14.80
2013,04,23,16,28,14.70
2013,04,23,16,29,14.60
2013,04,23,16,30,14.60
2013,04,23,16,31,14.60
2013,04,23,16,32,14.60
2013,04,23,16,33,14.60
2013,04,23,16,34,14.60
2013,04,23,16,35,14.60
2013,04,23,16,36,14.60
2013,04,23,16,37,14.50
2013,04,23,16,38,14.50
2013,04,23,16,39,14.30
2013,04,23,16,40,14.30
2013,04,23,16,41,14.20
2013,04,23,16,42,14.30
2013,04,23,16,43,14.30
2013,04,23,16,44,14.30
2013,04,23,16,45,14.40
2013,04,23,16,46,14.40
2013,04,23,16,47,14.50
2013,04,23,16,48,14.50
2013,04,23,16,49,14.50
2013,04,23,16,50,14.50
2013,04,23,16,51,14.40
2013,04,23,16,52,14.40
2013,04,23,16,53,14.40
2013,04,23,16,54,14.40
2013,04,23,16,55,14.40
2013,04,23,16,56,14.50
2013,04,23,16,57,14.60
2013,04,23,16,58,14.50
2013,04,23,16,59,14.60
2013,04,23,17,00,14.60
2013,04,23,17,01,14.70
2013,04,23,17,02,14.70
2013,04,23,17,03,14.70
2013,04,23,17,04,14.60
2013,04,23,17,05,14.60
2013,04,23,17,06,14.60
2013,04,23,17,07,14.60
2013,04,23,17,08,14.60
2013,04,23,17,09,14.60
2013,04,23,17,10,14.60
2013,04,23,17,11,14.50
2013,04,23,17,12,14.40
2013,04,23,17,13,14.30
2013,04,23,17,14,14.20
2013,04,23,17,15,14.20
2013,04,23,17,16,14.20
2013,04,23,17,17,14.20
2013,04,23,17,18,14.20
2013,04,23,17,19,14.30
2013,04,23,17,20,14.40
2013,04,23,17,21,14.40
2013,04,23,17,22,14.50
2013,04,23,17,23,14.60
2013,04,23,17,24,14.60
2013,04,23,17,25,14.70
2013,04,23,17,26,14.70
2013,04,23,17,27,14.70
2013,04,23,17,28,14.80
2013,04,23,17,29,14.80
2013,04,23,17,30,14.80
2013,04,23,17,31,14.90
2013,04,23,17,32,14.90
2013,04,23,17,33,14.90
2013,04,23,17,34,14.80
2013,04,23,17,35,14.70
2013,04,23,17,36,14.70
2013,04,23,17,37,14.60
2013,04,23,17,38,14.50
2013,04,23,17,39,14.50
2013,04,23,17,40,14.50
2013,04,23,17,41,14.60
2013,04,23,17,42,14.60
2013,04,23,17,43,14.60